{"data":{"norad_id":58619,"intl_designator":"2023-203B","name":"STARLINK-31054","alt_names":[],"object_type":"PAYLOAD","status":"ACTIVE","operator":null,"country":"US","launch_date":"2023-12-23","launch_site_code":"AFETR","launch_vehicle":null,"mission":null,"orbit_class":"UNKNOWN","rcs_meters":null,"size_class":null,"mass_kg":null,"dimensions":null,"purposes":["comms"],"wikipedia_slug":null,"has_3d_model":false,"image_url":null,"decayed_at":null,"tle_current":{"epoch":"2026-09-20T16:44:42.974304Z","epoch_age_seconds":132739,"freshness":"FRESH","line1":"1 58619U 23203B   26263.69771961  .00001027  00000+0  46831-4 0  9999","line2":"2 58619  43.0026  45.9375 0001141 276.0545  84.0177 15.27585296153382","mean_motion":15.27585296,"eccentricity":0.0001141,"inclination_deg":43.0026,"raan_deg":45.9375,"arg_perigee_deg":276.0545,"mean_anomaly_deg":84.0177,"bstar":4.6831e-5,"rev_number":15338,"period_min":94.266421899363,"perigee_km":482.25037843209,"apogee_km":483.81609748039,"semimajor_km":6861.1702379562,"source":"CELESTRAK","updated_at":"2026-09-21T09:00:33.921800Z"}}}